Time,TemperatureF,DewpointF,PressureIn,WindDirection,WindDirectionDegrees,WindSpeedMPH,WindSpeedGustMPH,Humidity,HourlyPrecipIn,Conditions,Clouds,dailyrainin,SoftwareType,DateUTC
2013-08-09 00:07:00,50.7,51.0,29.95,SE,132,0.0,-999.0,99,-99.99,,,0.00,weatherlink.com 1.10,2013-08-09 07:07:00,
2013-08-09 00:22:00,51.3,51.0,29.94,SE,132,0.0,-999.0,100,-99.99,,,0.00,weatherlink.com 1.10,2013-08-09 07:22:00,
2013-08-09 00:37:00,51.6,52.0,29.94,SE,132,0.0,-999.0,100,-99.99,,,0.00,weatherlink.com 1.10,2013-08-09 07:37:00,
2013-08-09 00:52:00,51.7,52.0,29.94,SE,132,0.0,-999.0,100,-99.99,,,0.00,weatherlink.com 1.10,2013-08-09 07:52:00,
2013-08-09 01:07:00,51.9,52.0,29.94,SE,132,0.0,-999.0,100,-99.99,,,0.00,weatherlink.com 1.10,2013-08-09 08:07:00,
2013-08-09 01:22:00,52.0,52.0,29.94,SE,132,1.0,-999.0,100,-99.99,,,0.00,weatherlink.com 1.10,2013-08-09 08:22:00,
2013-08-09 01:37:00,52.0,52.0,29.94,SE,133,0.0,-999.0,100,-99.99,,,0.00,weatherlink.com 1.10,2013-08-09 08:37:00,
2013-08-09 01:52:00,51.9,52.0,29.94,SE,133,0.0,-999.0,100,-99.99,,,0.00,weatherlink.com 1.10,2013-08-09 08:52:00,
2013-08-09 02:07:00,51.9,52.0,29.94,SE,133,0.0,-999.0,100,-99.99,,,0.00,weatherlink.com 1.10,2013-08-09 09:07:00,
2013-08-09 02:22:00,51.9,52.0,29.94,ESE,117,0.0,-999.0,100,-99.99,,,0.00,weatherlink.com 1.10,2013-08-09 09:22:00,
2013-08-09 02:37:00,51.7,52.0,29.94,ESE,117,0.0,-999.0,100,-99.99,,,0.00,weatherlink.com 1.10,2013-08-09 09:37:00,
2013-08-09 02:52:00,51.7,52.0,29.93,ESE,113,0.0,-999.0,100,-99.99,,,0.00,weatherlink.com 1.10,2013-08-09 09:52:00,
2013-08-09 03:07:00,51.7,52.0,29.93,ESE,114,0.0,-999.0,100,-99.99,,,0.00,weatherlink.com 1.10,2013-08-09 10:07:00,
2013-08-09 03:22:00,51.9,52.0,29.93,ESE,114,0.0,-999.0,100,-99.99,,,0.00,weatherlink.com 1.10,2013-08-09 10:22:00,
2013-08-09 03:37:00,51.9,52.0,29.93,ESE,113,1.0,-999.0,100,-99.99,,,0.00,weatherlink.com 1.10,2013-08-09 10:37:00,
2013-08-09 03:52:00,51.7,52.0,29.93,ESE,111,0.0,-999.0,100,-99.99,,,0.00,weatherlink.com 1.10,2013-08-09 10:52:00,
2013-08-09 04:07:00,51.6,52.0,29.92,ESE,111,0.0,-999.0,100,-99.99,,,0.00,weatherlink.com 1.10,2013-08-09 11:07:00,
2013-08-09 04:22:00,51.7,52.0,29.92,ESE,111,0.0,-999.0,100,-99.99,,,0.00,weatherlink.com 1.10,2013-08-09 11:22:00,
2013-08-09 04:37:00,51.7,52.0,29.92,ESE,111,0.0,-999.0,100,-99.99,,,0.00,weatherlink.com 1.10,2013-08-09 11:37:00,
2013-08-09 04:52:00,51.9,52.0,29.91,ESE,111,0.0,-999.0,100,-99.99,,,0.00,weatherlink.com 1.10,2013-08-09 11:52:00,
2013-08-09 05:07:00,51.9,52.0,29.91,ESE,111,0.0,-999.0,100,-99.99,,,0.00,weatherlink.com 1.10,2013-08-09 12:07:00,
2013-08-09 05:22:00,51.9,52.0,29.92,ESE,111,0.0,-999.0,100,-99.99,,,0.00,weatherlink.com 1.10,2013-08-09 12:22:00,
2013-08-09 05:37:00,51.9,52.0,29.92,ESE,111,0.0,-999.0,100,-99.99,,,0.00,weatherlink.com 1.10,2013-08-09 12:37:00,
2013-08-09 05:52:00,52.0,52.0,29.92,ESE,111,0.0,-999.0,100,-99.99,,,0.00,weatherlink.com 1.10,2013-08-09 12:52:00,
2013-08-09 06:07:00,52.0,52.0,29.92,ESE,111,0.0,-999.0,100,-99.99,,,0.00,weatherlink.com 1.10,2013-08-09 13:07:00,
2013-08-09 06:22:00,52.0,52.0,29.92,ESE,111,0.0,-999.0,100,-99.99,,,0.00,weatherlink.com 1.10,2013-08-09 13:22:00,
2013-08-09 06:37:00,52.0,52.0,29.92,ESE,111,0.0,-999.0,100,-99.99,,,0.01,weatherlink.com 1.10,2013-08-09 13:37:00,
2013-08-09 06:52:00,52.0,52.0,29.93,ESE,111,0.0,-999.0,100,-99.99,,,0.01,weatherlink.com 1.10,2013-08-09 13:52:00,
2013-08-09 07:07:00,52.0,52.0,29.93,ESE,111,0.0,-999.0,100,-99.99,,,0.01,weatherlink.com 1.10,2013-08-09 14:07:00,
2013-08-09 07:22:00,52.1,52.0,29.93,ESE,111,0.0,-999.0,100,-99.99,,,0.01,weatherlink.com 1.10,2013-08-09 14:22:00,
2013-08-09 07:37:00,52.3,52.0,29.93,South,172,0.0,-999.0,100,-99.99,,,0.01,weatherlink.com 1.10,2013-08-09 14:37:00,
2013-08-09 07:52:00,52.3,52.0,29.93,NE,38,0.0,-999.0,100,-99.99,,,0.01,weatherlink.com 1.10,2013-08-09 14:52:00,
2013-08-09 08:07:00,52.3,52.0,29.94,ENE,65,0.0,-999.0,100,-99.99,,,0.01,weatherlink.com 1.10,2013-08-09 15:07:00,
2013-08-09 08:22:00,52.4,52.0,29.94,ENE,65,0.0,-999.0,100,-99.99,,,0.01,weatherlink.com 1.10,2013-08-09 15:22:00,
2013-08-09 08:37:00,52.9,53.0,29.94,ENE,65,0.0,-999.0,100,-99.99,,,0.01,weatherlink.com 1.10,2013-08-09 15:37:00,
2013-08-09 08:52:00,53.0,53.0,29.94,NW,304,0.0,-999.0,100,-99.99,,,0.01,weatherlink.com 1.10,2013-08-09 15:52:00,
2013-08-09 09:07:00,53.3,53.0,29.94,West,261,0.0,-999.0,100,-99.99,,,0.01,weatherlink.com 1.10,2013-08-09 16:07:00,
2013-08-09 09:22:00,53.8,54.0,29.94,SW,229,0.0,-999.0,100,-99.99,,,0.01,weatherlink.com 1.10,2013-08-09 16:22:00,
2013-08-09 09:37:00,54.1,54.0,29.94,SE,134,0.0,-999.0,100,-99.99,,,0.01,weatherlink.com 1.10,2013-08-09 16:37:00,
2013-08-09 09:53:00,55.0,55.0,29.94,SSE,147,1.0,-999.0,100,-99.99,,,0.01,weatherlink.com 1.10,2013-08-09 16:53:00,
2013-08-09 10:08:00,55.3,55.0,29.94,East,82,1.0,-999.0,98,-99.99,,,0.01,weatherlink.com 1.10,2013-08-09 17:08:00,
2013-08-09 10:23:00,55.8,54.0,29.95,South,184,0.0,-999.0,94,-99.99,,,0.01,weatherlink.com 1.10,2013-08-09 17:23:00,
2013-08-09 10:38:00,56.3,54.0,29.95,SSE,155,1.0,-999.0,91,-99.99,,,0.01,weatherlink.com 1.10,2013-08-09 17:38:00,
2013-08-09 10:53:00,57.1,54.0,29.96,SSE,154,2.0,-999.0,90,-99.99,,,0.01,weatherlink.com 1.10,2013-08-09 17:53:00,
2013-08-09 11:08:00,57.8,54.0,29.96,SSW,211,1.0,-999.0,88,-99.99,,,0.01,weatherlink.com 1.10,2013-08-09 18:08:00,
2013-08-09 11:23:00,58.9,54.0,29.96,South,178,4.0,-999.0,85,-99.99,,,0.01,weatherlink.com 1.10,2013-08-09 18:23:00,
2013-08-09 11:38:00,60.4,55.0,29.95,East,101,5.0,-999.0,82,-99.99,,,0.01,weatherlink.com 1.10,2013-08-09 18:38:00,
2013-08-09 11:53:00,61.1,55.0,29.96,SSE,154,7.0,-999.0,81,-99.99,,,0.01,weatherlink.com 1.10,2013-08-09 18:53:00,
2013-08-09 12:08:00,62.5,56.0,29.95,ESE,115,1.0,-999.0,80,-99.99,,,0.01,weatherlink.com 1.10,2013-08-09 19:08:00,
2013-08-09 12:23:00,65.1,57.0,29.94,South,178,6.0,-999.0,74,-99.99,,,0.01,weatherlink.com 1.10,2013-08-09 19:23:00,
2013-08-09 12:38:00,66.9,56.0,29.94,ESE,117,3.0,-999.0,68,-99.99,,,0.01,weatherlink.com 1.10,2013-08-09 19:38:00,
2013-08-09 12:53:00,68.2,56.0,29.94,ENE,74,4.0,-999.0,66,-99.99,,,0.01,weatherlink.com 1.10,2013-08-09 19:53:00,
2013-08-09 13:08:00,69.7,57.0,29.94,ENE,61,1.0,-999.0,65,-99.99,,,0.01,weatherlink.com 1.10,2013-08-09 20:08:00,
2013-08-09 13:23:00,70.9,57.0,29.93,SSE,151,4.0,-999.0,61,-99.99,,,0.01,weatherlink.com 1.10,2013-08-09 20:23:00,
2013-08-09 13:38:00,71.8,57.0,29.93,SSW,193,7.0,-999.0,59,-99.99,,,0.01,weatherlink.com 1.10,2013-08-09 20:38:00,
2013-08-09 13:53:00,71.5,56.0,29.93,SSW,201,5.0,-999.0,59,-99.99,,,0.01,weatherlink.com 1.10,2013-08-09 20:53:00,
2013-08-09 14:08:00,70.8,56.0,29.93,South,176,5.0,-999.0,60,-99.99,,,0.01,weatherlink.com 1.10,2013-08-09 21:08:00,
2013-08-09 14:23:00,69.9,56.0,29.93,SE,130,5.0,-999.0,61,-99.99,,,0.01,weatherlink.com 1.10,2013-08-09 21:23:00,
2013-08-09 14:38:00,70.8,57.0,29.93,WSW,252,4.0,-999.0,61,-99.99,,,0.01,weatherlink.com 1.10,2013-08-09 21:38:00,
2013-08-09 15:08:00,70.9,56.0,29.93,SE,141,4.0,-999.0,60,-99.99,,,0.01,weatherlink.com 1.10,2013-08-09 22:08:00,
2013-08-09 15:23:00,70.9,56.0,29.93,SE,128,2.0,-999.0,60,-99.99,,,0.01,weatherlink.com 1.10,2013-08-09 22:23:00,
2013-08-09 15:38:00,71.3,57.0,29.92,ESE,123,6.0,-999.0,62,-99.99,,,0.01,weatherlink.com 1.10,2013-08-09 22:38:00,
2013-08-09 15:53:00,71.6,56.0,29.92,South,186,9.0,-999.0,59,-99.99,,,0.01,weatherlink.com 1.10,2013-08-09 22:53:00,
2013-08-09 16:08:00,71.8,56.0,29.91,South,189,3.0,-999.0,58,-99.99,,,0.01,weatherlink.com 1.10,2013-08-09 23:08:00,
2013-08-09 16:23:00,70.6,56.0,29.92,East,84,4.0,-999.0,61,-99.99,,,0.01,weatherlink.com 1.10,2013-08-09 23:23:00,
2013-08-09 16:38:00,71.1,55.0,29.92,SSW,196,3.0,-999.0,57,-99.99,,,0.01,weatherlink.com 1.10,2013-08-09 23:38:00,
2013-08-09 16:53:00,70.6,56.0,29.92,SSW,211,4.0,-999.0,60,-99.99,,,0.01,weatherlink.com 1.10,2013-08-09 23:53:00,
2013-08-09 17:08:00,69.1,54.0,29.93,South,178,11.0,-999.0,60,-99.99,,,0.01,weatherlink.com 1.10,2013-08-10 00:08:00,
2013-08-09 17:23:00,67.9,55.0,29.93,South,188,9.0,-999.0,63,-99.99,,,0.01,weatherlink.com 1.10,2013-08-10 00:23:00,
2013-08-09 17:38:00,67.2,55.0,29.93,SW,217,6.0,-999.0,64,-99.99,,,0.01,weatherlink.com 1.10,2013-08-10 00:38:00,
2013-08-09 17:53:00,67.1,54.0,29.93,SSW,198,6.0,-999.0,64,-99.99,,,0.01,weatherlink.com 1.10,2013-08-10 00:53:00,
2013-08-09 18:08:00,65.7,54.0,29.93,SW,225,6.0,-999.0,66,-99.99,,,0.01,weatherlink.com 1.10,2013-08-10 01:08:00,
2013-08-09 18:23:00,64.9,54.0,29.93,South,180,3.0,-999.0,67,-99.99,,,0.01,weatherlink.com 1.10,2013-08-10 01:23:00,
2013-08-09 18:38:00,64.0,54.0,29.93,SSW,196,7.0,-999.0,69,-99.99,,,0.01,weatherlink.com 1.10,2013-08-10 01:38:00,
2013-08-09 18:53:00,63.1,54.0,29.94,SW,216,0.0,-999.0,71,-99.99,,,0.01,weatherlink.com 1.10,2013-08-10 01:53:00,
2013-08-09 19:08:00,62.0,53.0,29.94,SW,223,1.0,-999.0,73,-99.99,,,0.01,weatherlink.com 1.10,2013-08-10 02:08:00,
2013-08-09 19:23:00,61.1,53.0,29.94,South,178,6.0,-999.0,75,-99.99,,,0.01,weatherlink.com 1.10,2013-08-10 02:23:00,
2013-08-09 19:38:00,58.9,53.0,29.95,SSW,200,2.0,-999.0,81,-99.99,,,0.01,weatherlink.com 1.10,2013-08-10 02:38:00,
2013-08-09 19:53:00,57.5,53.0,29.95,SSW,201,2.0,-999.0,84,-99.99,,,0.01,weatherlink.com 1.10,2013-08-10 02:53:00,
2013-08-09 20:09:00,56.9,53.0,29.95,ESE,103,0.0,-999.0,85,-99.99,,,0.01,weatherlink.com 1.10,2013-08-10 03:09:00,
2013-08-09 20:24:00,56.1,52.0,29.95,ESE,103,0.0,-999.0,86,-99.99,,,0.01,weatherlink.com 1.10,2013-08-10 03:24:00,
2013-08-09 20:39:00,55.4,52.0,29.96,ESE,103,0.0,-999.0,87,-99.99,,,0.01,weatherlink.com 1.10,2013-08-10 03:39:00,
2013-08-09 20:54:00,54.5,51.0,29.96,ESE,103,0.0,-999.0,89,-99.99,,,0.01,weatherlink.com 1.10,2013-08-10 03:54:00,
2013-08-09 21:09:00,53.8,51.0,29.96,ESE,103,0.0,-999.0,91,-99.99,,,0.01,weatherlink.com 1.10,2013-08-10 04:09:00,
2013-08-09 21:24:00,53.2,51.0,29.97,ESE,103,0.0,-999.0,91,-99.99,,,0.01,weatherlink.com 1.10,2013-08-10 04:24:00,
2013-08-09 21:39:00,52.4,50.0,29.97,ESE,103,0.0,-999.0,91,-99.99,,,0.01,weatherlink.com 1.10,2013-08-10 04:39:00,
2013-08-09 21:54:00,52.0,50.0,29.97,ESE,103,0.0,-999.0,92,-99.99,,,0.01,weatherlink.com 1.10,2013-08-10 04:54:00,
2013-08-09 22:09:00,51.4,49.0,29.98,ESE,103,0.0,-999.0,92,-99.99,,,0.01,weatherlink.com 1.10,2013-08-10 05:09:00,
2013-08-09 22:24:00,50.8,49.0,29.98,ESE,103,0.0,-999.0,92,-99.99,,,0.01,weatherlink.com 1.10,2013-08-10 05:24:00,
2013-08-09 22:39:00,50.5,49.0,29.98,ESE,103,0.0,-999.0,93,-99.99,,,0.01,weatherlink.com 1.10,2013-08-10 05:39:00,
2013-08-09 22:54:00,50.2,49.0,29.98,ESE,103,0.0,-999.0,94,-99.99,,,0.01,weatherlink.com 1.10,2013-08-10 05:54:00,
2013-08-09 23:09:00,50.1,49.0,29.98,ESE,103,0.0,-999.0,95,-99.99,,,0.01,weatherlink.com 1.10,2013-08-10 06:09:00,
2013-08-09 23:24:00,49.9,49.0,29.99,ESE,103,0.0,-999.0,95,-99.99,,,0.01,weatherlink.com 1.10,2013-08-10 06:24:00,
2013-08-09 23:39:00,50.4,50.0,29.99,ESE,103,0.0,-999.0,98,-99.99,,,0.01,weatherlink.com 1.10,2013-08-10 06:39:00,
2013-08-09 23:54:00,50.8,51.0,29.99,ESE,103,0.0,-999.0,99,-99.99,,,0.01,weatherlink.com 1.10,2013-08-10 06:54:00,